Simultaneous Nadir Overpasses (SNOs) Predictions

Prediction of SNOs between METOP-A and TERRA Satellite Orbit:

Table of predicted SNOs for the next 14.0 days since TLE Epoch: 1/11/2014
Index Date (METOP-A) Time (METOP-A) Lat,Lon (METOP-A) SZA (METOP-A ) Date (TERRA) Time (TERRA) Lat,Lon (TERRA) SZA (TERRA ) Distance(km) Time Diff (sec)
1 01/12/2014 13:09:08 -81.33,-149.98 74.66 01/12/2014 13:10:15 -81.33,-149.96 74.63 0.45 67
2 01/12/2014 13:59:48 81.33, 17.81 105.39 01/12/2014 13:59:41 81.34, 17.79 105.38 0.53 7
3 01/15/2014 08:43:29 -81.33, -83.57 75.18 01/15/2014 08:44:28 -81.33, -83.47 75.14 1.85 59
4 01/15/2014 09:34:09 81.33, 84.20 104.87 01/15/2014 09:33:54 81.34, 84.25 104.87 0.93 15
5 01/18/2014 04:17:49 -81.33, -17.23 75.75 01/18/2014 04:18:40 -81.33, -17.16 75.73 1.22 51
6 01/18/2014 05:08:29 81.33, 150.52 104.29 01/18/2014 05:08:06 81.33, 150.52 104.28 0.39 23
7 01/20/2014 23:52:09 -81.33, 49.43 76.34 01/20/2014 23:52:52 -81.33, 49.34 76.33 1.48 43
8 01/21/2014 00:42:49 81.33,-142.83 103.70 01/21/2014 00:42:18 81.33,-143.01 103.66 3.04 31
9 01/23/2014 19:26:30 -81.33, 115.64 77.03 01/23/2014 19:27:04 -81.32, 115.66 77.01 0.70 34




NCC Satellite Simultaneous Nadir Overpasses (SNOs) Prediction Service
